Hourly Weather Irvadan

Today, 23 April, Friday

Time Temperature Precipitation Wind Pressure Humidity
00:00 +16°C° 0 mm 2 mps 730 mmHg 41%
01:00 +15°C° 0 mm 2 mps 730 mmHg 43%
02:00 +14°C° 0 mm 2 mps 729 mmHg 45%
03:00 +14°C° 0 mm 2 mps 729 mmHg 47%
04:00 +13°C° 0 mm 2 mps 729 mmHg 49%
05:00 +13°C° 0 mm 2 mps 729 mmHg 50%
06:00 +14°C° 0 mm 2 mps 730 mmHg 45%
07:00 +16°C° 0 mm 2 mps 730 mmHg 41%
08:00 +17°C° 0 mm 2 mps 730 mmHg 36%
09:00 +18°C° 0 mm 2 mps 730 mmHg 32%
10:00 +20°C° 0 mm 2 mps 730 mmHg 29%
11:00 +21°C° 0 mm 2 mps 729 mmHg 25%
12:00 +23°C° 0 mm 2 mps 729 mmHg 23%
13:00 +24°C° 0 mm 2 mps 729 mmHg 22%
14:00 +25°C° 0 mm 1 mps 728 mmHg 20%
15:00 +25°C° 0 mm 1 mps 728 mmHg 19%
16:00 +25°C° 0 mm 2 mps 728 mmHg 18%
17:00 +25°C° 0 mm 2 mps 727 mmHg 18%
18:00 +24°C° 0 mm 2 mps 727 mmHg 20%
19:00 +23°C° 0 mm 2 mps 727 mmHg 22%
20:00 +21°C° 0 mm 2 mps 727 mmHg 24%
21:00 +20°C° 0 mm 2 mps 727 mmHg 26%
22:00 +19°C° 0 mm 2 mps 727 mmHg 27%
23:00 +19°C° 0 mm 2 mps 727 mmHg 29%

Tomorrow, 24 April, Saturday

Time Temperature Precipitation Wind Pressure Humidity
00:00 +18°C° 0 mm 2 mps 727 mmHg 32%
01:00 +17°C° 0 mm 2 mps 726 mmHg 36%
02:00 +16°C° 0 mm 2 mps 726 mmHg 39%
03:00 +16°C° 0 mm 2 mps 726 mmHg 40%
04:00 +15°C° 0 mm 2 mps 726 mmHg 41%
05:00 +15°C° 0 mm 2 mps 726 mmHg 41%
06:00 +16°C° 0 mm 2 mps 726 mmHg 38%
07:00 +18°C° 0 mm 2 mps 727 mmHg 34%
08:00 +19°C° 0 mm 2 mps 727 mmHg 30%
09:00 +21°C° 0 mm 2 mps 727 mmHg 27%
10:00 +23°C° 0 mm 2 mps 727 mmHg 24%
11:00 +25°C° 0 mm 2 mps 727 mmHg 21%
12:00 +26°C° 0 mm 2 mps 726 mmHg 20%
13:00 +27°C° 0 mm 1 mps 726 mmHg 18%
14:00 +28°C° 0 mm 1 mps 725 mmHg 17%
15:00 +27°C° 0 mm 1 mps 726 mmHg 17%
16:00 +27°C° 0 mm 1 mps 726 mmHg 17%
17:00 +27°C° 0 mm 2 mps 726 mmHg 17%
18:00 +26°C° 0 mm 1 mps 726 mmHg 18%
19:00 +26°C° 0 mm 1 mps 726 mmHg 19%
20:00 +23°C° 0 mm 0 mps 727 mmHg 20%
21:00 +24°C° 0 mm 1 mps 727 mmHg 21%
22:00 +23°C° 0 mm 1 mps 727 mmHg 22%
23:00 +22°C° 0 mm 1 mps 727 mmHg 24%

Day after tomorrow, 25 April, Sunday

Time Temperature Precipitation Wind Pressure Humidity
00:00 +21°C° 0 mm 1 mps 727 mmHg 27%
01:00 +20°C° 0 mm 2 mps 727 mmHg 30%
02:00 +19°C° 0 mm 2 mps 727 mmHg 33%
03:00 +18°C° 0 mm 2 mps 727 mmHg 35%
04:00 +18°C° 0 mm 2 mps 727 mmHg 37%
05:00 +17°C° 0 mm 2 mps 727 mmHg 39%
06:00 +19°C° 0 mm 2 mps 727 mmHg 35%
07:00 +20°C° 0 mm 2 mps 728 mmHg 32%
08:00 +23°C° 0 mm 2 mps 728 mmHg 29%
09:00 +25°C° 0 mm 2 mps 728 mmHg 25%
10:00 +26°C° 0 mm 2 mps 728 mmHg 21%
11:00 +28°C° 0 mm 2 mps 727 mmHg 17%
12:00 +29°C° 0 mm 2 mps 727 mmHg 16%
13:00 +30°C° 0 mm 1 mps 726 mmHg 15%
14:00 +30°C° 0 mm 1 mps 726 mmHg 14%
15:00 +30°C° 0 mm 1 mps 726 mmHg 14%
16:00 +30°C° 0 mm 1 mps 726 mmHg 14%
17:00 +30°C° 0 mm 1 mps 725 mmHg 14%
18:00 +29°C° 0 mm 1 mps 725 mmHg 15%
19:00 +28°C° 0 mm 1 mps 725 mmHg 17%
20:00 +24°C° 0 mm 0 mps 726 mmHg 18%
21:00 +25°C° 0 mm 1 mps 726 mmHg 20%
22:00 +25°C° 0 mm 1 mps 726 mmHg 21%
23:00 +24°C° 0 mm 2 mps 726 mmHg 22%

26 April, Monday

Time Temperature Precipitation Wind Pressure Humidity
00:00 +23°C° 0 mm 2 mps 725 mmHg 26%
01:00 +21°C° 0 mm 2 mps 725 mmHg 29%
02:00 +20°C° 0 mm 2 mps 725 mmHg 33%
03:00 +20°C° 0 mm 2 mps 725 mmHg 34%
04:00 +19°C° 0 mm 2 mps 725 mmHg 36%
05:00 +19°C° 0 mm 3 mps 725 mmHg 37%
06:00 +20°C° 0 mm 2 mps 726 mmHg 34%
07:00 +23°C° 0 mm 2 mps 726 mmHg 32%
08:00 +24°C° 0 mm 2 mps 726 mmHg 29%
09:00 +26°C° 0 mm 2 mps 726 mmHg 26%
10:00 +28°C° 0 mm 2 mps 726 mmHg 23%
11:00 +30°C° 0 mm 2 mps 725 mmHg 19%
12:00 +31°C° 0 mm 2 mps 725 mmHg 18%
13:00 +31°C° 0 mm 2 mps 724 mmHg 16%
14:00 +32°C° 0 mm 2 mps 724 mmHg 15%
15:00 +32°C° 0 mm 1 mps 724 mmHg 15%
16:00 +32°C° 0 mm 1 mps 724 mmHg 14%
17:00 +32°C° 0 mm 1 mps 723 mmHg 14%
18:00 +31°C° 0 mm 1 mps 723 mmHg 16%
19:00 +27°C° 0 mm 0 mps 723 mmHg 18%
20:00 +26°C° 0 mm 0 mps 723 mmHg 20%
21:00 +27°C° 0 mm 1 mps 723 mmHg 22%
22:00 +26°C° 0 mm 2 mps 723 mmHg 24%
23:00 +26°C° 0 mm 3 mps 723 mmHg 26%

27 April, Tuesday

Time Temperature Precipitation Wind Pressure Humidity
00:00 +25°C° 0 mm 3 mps 723 mmHg 28%
01:00 +24°C° 0 mm 2 mps 722 mmHg 31%
02:00 +23°C° 0 mm 2 mps 722 mmHg 33%
03:00 +23°C° 0 mm 2 mps 722 mmHg 34%
04:00 +21°C° 0 mm 2 mps 722 mmHg 34%
05:00 +21°C° 0 mm 2 mps 722 mmHg 35%
06:00 +23°C° 0 mm 2 mps 722 mmHg 32%
07:00 +25°C° 0 mm 2 mps 723 mmHg 29%
08:00 +26°C° 0 mm 2 mps 723 mmHg 25%
09:00 +28°C° 0 mm 2 mps 723 mmHg 22%
10:00 +30°C° 0 mm 2 mps 723 mmHg 19%
11:00 +32°C° 0 mm 2 mps 723 mmHg 16%
12:00 +34°C° 0 mm 2 mps 722 mmHg 14%
13:00 +35°C° 0 mm 2 mps 722 mmHg 13%
14:00 +36°C° 0 mm 2 mps 721 mmHg 11%
15:00 +36°C° 0 mm 2 mps 721 mmHg 11%
16:00 +36°C° 0 mm 2 mps 721 mmHg 11%
17:00 +35°C° 0 mm 1 mps 720 mmHg 10%
18:00 +33°C° 0 mm 1 mps 720 mmHg 12%
19:00 +32°C° 0 mm 1 mps 720 mmHg 14%
20:00 +30°C° 0 mm 1 mps 720 mmHg 16%
21:00 +29°C° 0 mm 1 mps 720 mmHg 18%
22:00 +28°C° 0 mm 2 mps 720 mmHg 19%
23:00 +27°C° 0 mm 2 mps 720 mmHg 20%

28 April, Wednesday

Time Temperature Precipitation Wind Pressure Humidity
00:00 +26°C° 0 mm 2 mps 720 mmHg 22%
01:00 +25°C° 0 mm 2 mps 720 mmHg 24%
02:00 +24°C° 0 mm 3 mps 720 mmHg 25%
03:00 +24°C° 0 mm 3 mps 720 mmHg 25%
04:00 +23°C° 0 mm 2 mps 721 mmHg 25%
05:00 +23°C° 0 mm 2 mps 721 mmHg 25%
06:00 +25°C° 0 mm 2 mps 721 mmHg 23%
07:00 +26°C° 0 mm 2 mps 722 mmHg 21%
08:00 +28°C° 0 mm 2 mps 722 mmHg 19%
09:00 +30°C° 0 mm 2 mps 722 mmHg 17%
10:00 +33°C° 0 mm 3 mps 722 mmHg 15%
11:00 +34°C° 0 mm 3 mps 722 mmHg 13%
12:00 +35°C° 0 mm 3 mps 722 mmHg 12%
13:00 +36°C° 0 mm 3 mps 721 mmHg 11%
14:00 +37°C° 0 mm 3 mps 721 mmHg 11%
15:00 +37°C° 0 mm 2 mps 721 mmHg 11%
16:00 +37°C° 0 mm 2 mps 720 mmHg 11%
17:00 +37°C° 0 mm 2 mps 720 mmHg 11%
18:00 +35°C° 0 mm 2 mps 720 mmHg 13%
19:00 +34°C° 0 mm 2 mps 720 mmHg 15%
20:00 +31°C° 0 mm 2 mps 720 mmHg 18%
21:00 +30°C° 0 mm 2 mps 720 mmHg 20%
22:00 +29°C° 0 mm 2 mps 721 mmHg 22%
23:00 +27°C° 0 mm 3 mps 721 mmHg 24%
Show more